Weather History for London, United Kingdom

Change the Weather History Date:

Tuesday, October 23, 2012

  Actual Average Record
Temperature  
Mean Temperature 55 °F -  
Max Temperature 57 °F 52 °F 68 °F (1996)
Min Temperature 53 °F 41 °F 37 °F (2003)
Degree Days  
Heating Degree Days 10    
Growing Degree Days 5 (Base 50)    
Moisture  
Dew Point 54 °F    
Average Humidity 96    
Maximum Humidity 100    
Minimum Humidity 88    
Precipitation  
Precipitation 0.01 in - - ()
Sea Level Pressure  
Sea Level Pressure 30.23 in    
Wind  
Wind Speed 4 mph ()    
Max Wind Speed 7 mph    
Max Gust Speed -    
Visibility 1.7 miles    
Events Rain    
Averages and records for this station are not official NWS values.
T = Trace of Precipitation, MM = Missing Value Source: Averaged Metar Reports

Daily Weather History Graph

Daily Weather History Graph

Search for Another Location

Airport:

Trip Planner

Search our weather history database for the weather conditions in past years. The results will help you decide how hot, cold, wet, or windy it might be!

Date:

Astronomy

Oct. 23, 2012 Rise Set
Actual Time 7:40 AM BST 5:51 PM BST
Civil Twilight 7:05 AM BST 6:25 PM BST
Nautical Twilight 6:26 AM BST 7:04 PM BST
Astronomical Twilight 5:48 AM BST 7:42 PM BST
Moon 3:04 PM BST (10/23) 12:33 AM BST (10/23)
Length of Visible Light 11h 19m
Length of Day
10h 11m
Waxing Gibbous, 64% of the Moon is Illuminated
Oct 23
Waxing Gibbous
Oct 29
Full
Nov 7
Last Quarter
Nov 13
New
Nov 20
First Quarter

Hourly Weather History & Observations

Time (BST) Temp. Dew Point Humidity Pressure Visibility Wind Dir Wind Speed Gust Speed Precip Events Conditions
12:20 AM 57.2 °F 57.2 °F 100% 30.21 in 1.1 mi ENE 5.8 mph - N/A   Light Drizzle
12:50 AM 57 °F 56 °F 97% 30.23 in 1 mi NNE 5.8 mph - - Rain Light Drizzle
12:50 AM 57.2 °F 57.2 °F 100% 30.21 in 1.1 mi ENE 4.6 mph - N/A   Light Drizzle
1:20 AM 57.2 °F 55.4 °F 94% 30.21 in 1.1 mi NE 4.6 mph - N/A   Overcast
1:50 AM 57.2 °F 55.4 °F 94% 30.21 in 1.6 mi Variable 3.5 mph - N/A   Overcast
2:20 AM 57.2 °F 55.4 °F 94% 30.21 in 1.1 mi North 3.5 mph - N/A   Mostly Cloudy
2:50 AM 57.2 °F 55.4 °F 94% 30.21 in 1.5 mi NE 4.6 mph - N/A   Mostly Cloudy
3:20 AM 57.2 °F 55.4 °F 94% 30.21 in 1.7 mi Variable 3.5 mph - N/A   Mostly Cloudy
3:50 AM 56 °F 56 °F 98% 30.22 in 2 mi NNE 5.8 mph - -   Mist
3:50 AM 57.2 °F 55.4 °F 94% 30.21 in 1.8 mi NNE 4.6 mph - N/A   Mostly Cloudy
4:20 AM 55.4 °F 55.4 °F 100% 30.21 in 1.9 mi NNE 4.6 mph - N/A   Mostly Cloudy
4:50 AM 55.4 °F 55.4 °F 100% 30.21 in 1.9 mi ENE 4.6 mph - N/A   Mostly Cloudy
5:20 AM 55.4 °F 55.4 °F 100% 30.21 in 1.7 mi NNE 4.6 mph - N/A   Mostly Cloudy
5:50 AM 55.4 °F 55.4 °F 100% 30.21 in 1.4 mi NE 4.6 mph - N/A   Mostly Cloudy
6:20 AM 55.4 °F 53.6 °F 94% 30.21 in 1.4 mi NNE 4.6 mph - N/A   Mostly Cloudy
6:50 AM 54 °F 54 °F 99% 30.23 in 2 mi North 4.6 mph - -   Mist
6:50 AM 55.4 °F 53.6 °F 94% 30.21 in 1.2 mi Variable 3.5 mph - N/A   Mostly Cloudy
7:20 AM 53.6 °F 53.6 °F 100% 30.24 in 1.2 mi NNE 4.6 mph - N/A   Mostly Cloudy
7:50 AM 53.6 °F 53.6 °F 100% 30.24 in 1.1 mi North 4.6 mph - N/A   Mostly Cloudy
8:20 AM 53.6 °F 53.6 °F 100% 30.24 in 0.9 mi Variable 3.5 mph - N/A   Mostly Cloudy
8:50 AM 53.6 °F 53.6 °F 100% 30.24 in 0.9 mi ENE 4.6 mph - N/A   Mostly Cloudy
9:20 AM 53.6 °F 53.6 °F 100% 30.24 in 1.1 mi NNE 4.6 mph - N/A   Mostly Cloudy
9:50 AM 54 °F 53 °F 95% 30.25 in 2 mi North 4.6 mph - - Rain Drizzle
9:50 AM 53.6 °F 53.6 °F 100% 30.24 in 1.1 mi ENE 4.6 mph - N/A   Mostly Cloudy
10:20 AM 53.6 °F 53.6 °F 100% 30.24 in 1.6 mi North 4.6 mph - N/A   Mostly Cloudy
10:50 AM 53.6 °F 53.6 °F 100% 30.24 in 1.6 mi North 4.6 mph - N/A   Mostly Cloudy
11:20 AM 53.6 °F 53.6 °F 100% 30.24 in 1.7 mi North 4.6 mph - N/A   Mostly Cloudy
11:50 AM 53.6 °F 53.6 °F 100% 30.27 in 1.6 mi NNW 4.6 mph - N/A   Mostly Cloudy
12:20 PM 53.6 °F 53.6 °F 100% 30.27 in 1.0 mi Variable 3.5 mph - N/A   Light Drizzle
12:50 PM 55 °F 53 °F 92% 30.27 in 3 mi NNW 3.5 mph - - Rain Drizzle
12:50 PM 53.6 °F 53.6 °F 100% 30.27 in 1.7 mi Variable 3.5 mph - N/A   Mostly Cloudy
1:20 PM 55.4 °F 53.6 °F 94% 30.24 in 2.2 mi North 4.6 mph - N/A   Mostly Cloudy
1:50 PM 55.4 °F 53.6 °F 94% 30.24 in - NNE 4.6 mph - N/A   Mostly Cloudy
2:20 PM 55.4 °F 53.6 °F 94% 30.24 in 3.1 mi Variable 3.5 mph - N/A   Haze
2:50 PM 55.4 °F 53.6 °F 94% 30.24 in 2.5 mi North 4.6 mph - N/A   Haze
3:20 PM 55.4 °F 53.6 °F 94% 30.24 in - North 5.8 mph - N/A   Mostly Cloudy
3:50 PM 56 °F 54 °F 93% 30.23 in 3 mi NNE 4.6 mph - -   Light Haze
3:50 PM 55.4 °F 53.6 °F 94% 30.24 in - NNE 5.8 mph - N/A   Mostly Cloudy
4:20 PM 55.4 °F 53.6 °F 94% 30.24 in - NNE 4.6 mph - N/A   Haze
4:50 PM 55.4 °F 53.6 °F 94% 30.21 in 2.2 mi NNE 6.9 mph - N/A   Haze
5:20 PM 57.2 °F 53.6 °F 88% 30.21 in 2.2 mi NE 5.8 mph - N/A   Haze
5:50 PM 57.2 °F 55.4 °F 94% 30.21 in 2.2 mi NNE 4.6 mph - N/A   Haze
6:20 PM 57.2 °F 55.4 °F 94% 30.21 in - NNE 5.8 mph - N/A   Haze
6:50 PM 56 °F 55 °F 94% 30.23 in 2 mi NNE 5.8 mph - -   Light Haze
6:50 PM 55.4 °F 53.6 °F 94% 30.24 in - NE 5.8 mph - N/A   Haze
7:20 PM 55.4 °F 53.6 °F 94% 30.24 in 1.9 mi NNE 5.8 mph - N/A   Haze
7:50 PM 55.4 °F 53.6 °F 94% 30.24 in 1.9 mi NNE 5.8 mph - N/A   Haze
8:20 PM 55.4 °F 53.6 °F 94% 30.24 in 1.9 mi NNE 4.6 mph - N/A   Haze
8:50 PM 55.4 °F 53.6 °F 94% 30.24 in 1.9 mi NNE 5.8 mph - N/A   Haze
9:20 PM 55.4 °F 53.6 °F 94% 30.24 in - NE 6.9 mph - N/A   Haze
9:50 PM 55 °F 54 °F 93% 30.24 in 2 mi NE 5.8 mph - - Rain Drizzle
9:50 PM 55.4 °F 53.6 °F 94% 30.24 in 2.2 mi NE 5.8 mph - N/A   Haze
10:20 PM 55.4 °F 53.6 °F 94% 30.24 in - NE 5.8 mph - N/A   Haze
10:50 PM 55.4 °F 53.6 °F 94% 30.21 in - Variable 3.5 mph - N/A   Haze
11:20 PM 55.4 °F 53.6 °F 94% 30.21 in - Variable 3.5 mph - N/A   Haze
11:50 PM 55.4 °F 53.6 °F 94% 30.21 in - North 4.6 mph - N/A   Haze